This demonstration page uses our WeatherBlox Daily Observations layout. Learn more.

41.55636, -103.73856

Hourly Observations for June 21, 2020

Temp ( °F °C ) Dew Point ( °F °C ) Humidity (%) Winds ( mph kmh ) Pressure ( in mb ) Visibility ( mi km ) Precip ( " mm )
12:58 am 00:58 Clear 80 26.4 35 1.5 20 20 NNE 9 15 29.83 1010 10 16.0934 0 0
1:58 am 01:58 Clear 72 22.3 40 4.3 31 31 E 6 9 29.82 1010 10 16.0934 0 0
2:58 am 02:58 Partly Cloudy 69 20.4 37 2.8 31 31 SSE 9 15 29.84 1010 10 16.0934 0 0
3:58 am 03:58 Mostly Cloudy 69 20.4 38 3.4 33 33 S 12 19 29.85 1011 10 16.0934 0 0
4:58 am 04:58 Mostly Cloudy 66 18.7 40 4.3 39 39 S 12 19 29.84 1011 10 16.0934 0 0
5:58 am 05:58 Mostly Cloudy 65 18.1 39 3.9 39 39 SW 7 11 29.83 1010 10 16.0934 0 0
6:58 am 06:58 Mostly Cloudy 66 18.8 38 3.3 36 36 WSW 20 31 29.81 1010 10 16.0934 0 0
7:58 am 07:58 Mostly Cloudy 68 20 36 2.2 31 31 SSW 17 28 29.78 1008 10 16.0934 0 0
8:58 am 08:58 Mostly Cloudy 64 17.9 38 3.1 37 37 SSW 16 26 29.79 1009 10 16.0934 0 0
9:58 am 09:58 Mostly Cloudy 66 18.8 38 3.1 35 35 SW 13 20 29.77 1008 10 16.0934 0 0
10:58 am 10:58 Mostly Cloudy 65 18.1 36 2.4 35 35 WNW 14 22 29.79 1009 10 16.0934 0 0
11:58 am 11:58 Partly Cloudy 60 15.6 41 4.8 49 49 W 10 17 29.81 1010 10 16.0934 0 0
12:58 pm 12:58 Sunny 62 16.8 45 7.2 53 53 WNW 16 26 29.85 1011 10 16.0934 0 0
1:58 pm 13:58 Sunny 64 17.6 45 7.3 51 51 WNW 14 22 29.88 1012 10 16.0934 0 0
2:58 pm 14:58 Sunny 67 19.6 45 7.1 44 44 NNW 14 22 29.88 1012 10 16.0934 0 0
3:58 pm 15:58 Sunny 71 21.4 44 6.6 38 38 NW 13 20 29.87 1012 10 16.0934 0 0
4:58 pm 16:58 Sunny 74 23.2 44 6.5 34 34 NNW 8 13 29.87 1012 10 16.0934 0 0
5:58 pm 17:58 Sunny 76 24.7 41 4.9 28 28 NNW 7 11 29.87 1011 10 16.0934 0 0
6:58 pm 18:58 Sunny 78 25.6 41 5 27 27 NNW 7 11 29.85 1011 10 16.0934 0 0
7:58 pm 19:58 Sunny 81 27.3 37 2.5 20 20 NNW 15 24 29.83 1010 10 16.0934 0 0
8:58 pm 20:58 Mostly Sunny 81 27.3 36 2.1 20 20 NNE 10 17 29.81 1010 10 16.0934 0 0
9:58 pm 21:58 Mostly Cloudy with Light Showers 63 17.1 53 11.6 70 70 NNW 15 24 29.9 1012 10 16.0934 0.02 0.508
10:58 pm 22:58 Partly Cloudy 72 22.2 52 11.1 50 50 NW 10 17 29.87 1012 10 16.0934 0 0
11:58 pm 23:58 Sunny 71 21.6 48 9 45 45 NW 5 7 29.86 1011 10 16.0934 0 0

Powered by AerisWeather